Stations météo

réclame
Mon MeteoGroup
Culdrose, Grande-Bretagne (3809): Température de l'air & dewpoint: 19.11.2020 00:00:00 - 25.11.2020 00:00:00 (GMT)Culdrose, Grande-Bretagne (3809): Vitesse du vent & gusts: 19.11.2020 00:00:00 - 25.11.2020 00:00:00 (GMT)Culdrose, Grande-Bretagne (3809): Direction du vent: 19.11.2020 00:00:00 - 25.11.2020 00:00:00 (GMT)Culdrose, Grande-Bretagne (3809): reduced air pressure: 19.11.2020 00:00:00 - 25.11.2020 00:00:00 (GMT)Culdrose, Grande-Bretagne (3809): visibility: 19.11.2020 00:00:00 - 25.11.2020 00:00:00 (GMT)Culdrose, Grande-Bretagne (3809): Quantités de précipitations: 19.11.2020 00:00:00 - 25.11.2020 00:00:00 (GMT)
Date & Time tt [°C] td [°C] ff [km/h] ff [knt] fx [km/h] fx [knt] dd ppp [hPa] vv [km] rr [mm]
25.11.2020 00:00:00 - - - - - - - - - -
24.11.2020 23:00:00 11,1 10,1 21 11 - - WSW 1007,4 4,4 0,2
24.11.2020 22:00:00 12,4 11,9 28 15 - - SSW 1007,3 12 0,0
24.11.2020 21:00:00 12,5 11,9 26 14 52 28 SSW 1007,4 12 0,6
24.11.2020 20:00:00 12,0 11,5 22 12 46 25 S 1007,6 8 0,2
24.11.2020 19:00:00 12,4 11,6 26 14 46 25 S 1007,9 10 0,0
24.11.2020 18:00:00 12,3 11,2 21 11 48 26 S 1008,3 12 0,0
24.11.2020 17:00:00 12,2 11,1 26 14 48 26 S 1008,4 10 0,0
24.11.2020 16:00:00 12,3 10,7 28 15 50 27 S 1008,6 10 0,0
24.11.2020 15:00:00 12,4 10,9 28 15 55 30 SSW 1009,0 10 0,0
24.11.2020 14:00:00 13,1 11,7 26 14 54 29 S 1009,8 10 0,0
24.11.2020 13:00:00 12,7 11,4 26 14 48 26 S 1010,8 10 0,0
24.11.2020 12:00:00 12,5 11,2 26 14 54 29 S 1012,1 15 0,0
24.11.2020 11:00:00 12,5 11,0 26 14 50 27 S 1013,4 10 0,0
24.11.2020 10:00:00 12,2 10,8 22 12 - - S 1013,9 10 0,0
24.11.2020 09:00:00 11,8 10,9 18 10 - - S 1014,5 20 0,0
24.11.2020 08:00:00 11,5 10,8 18 10 - - S 1015,0 10 0,0
24.11.2020 07:00:00 11,5 10,7 18 10 - - S 1015,7 10 0,0
24.11.2020 06:00:00 11,3 10,3 26 14 - - S 1016,4 20 0,0
24.11.2020 05:00:00 11,0 9,9 24 13 - - S 1017,1 35 0,2
24.11.2020 04:00:00 11,5 9,7 22 12 - - SSW 1018,0 25 0,0
24.11.2020 03:00:00 11,4 9,0 31 17 - - SSW 1019,0 55 0,0
24.11.2020 02:00:00 11,4 9,4 28 15 - - SSW 1019,8 35 0,0
24.11.2020 01:00:00 11,4 9,8 24 13 - - SSW 1020,9 22 0,0
24.11.2020 00:00:00 11,2 10,2 26 14 - - SSW 1021,8 35 0,0
23.11.2020 23:00:00 11,0 10,2 29 16 - - SSW 1022,5 19 0,0
23.11.2020 22:00:00 11,2 10,7 26 14 - - SSW 1023,0 15 0,0
23.11.2020 21:00:00 10,7 10,3 31 17 - - SSW 1023,4 14 0,2
23.11.2020 20:00:00 11,2 10,5 29 16 - - SW 1023,6 14 0,0
23.11.2020 19:00:00 11,2 10,5 31 17 - - SSW 1024,2 21 0,0
23.11.2020 18:00:00 10,9 10,5 31 17 50 27 SSW 1024,5 45 0,0
23.11.2020 17:00:00 10,8 10,6 31 17 - - SSW 1024,6 45 0,0
23.11.2020 16:00:00 10,9 10,7 24 13 - - SSW 1024,9 1,0 0,2
23.11.2020 15:00:00 10,9 10,6 22 12 - - SW 1025,3 2,0 0,0
23.11.2020 14:00:00 10,9 10,3 26 14 - - SSW 1025,8 10 0,0
23.11.2020 13:00:00 11,0 10,7 16 9 - - SSW 1026,2 2,0 0,0
23.11.2020 12:00:00 11,1 10,0 15 8 - - SSW 1026,8 3,5 0,0
23.11.2020 11:00:00 11,0 10,1 16 9 - - SSW 1027,5 20 0,0
23.11.2020 10:00:00 10,6 10,2 18 10 - - SSW 1027,5 20 0,0
23.11.2020 09:00:00 10,1 10,0 11 6 - - SSW 1027,6 10 0,0
23.11.2020 08:00:00 9,0 9,0 8 4 - - S 1027,3 10 0,0
23.11.2020 07:00:00 8,2 8,2 11 6 - - SSE 1027,3 10 0,0
23.11.2020 06:00:00 6,5 6,5 11 6 - - SE 1027,4 10 0,0
23.11.2020 05:00:00 5,3 5,2 11 6 - - SSE 1027,8 6 0,0
23.11.2020 04:00:00 5,5 5,5 11 6 - - SE 1028,1 4,5 0,0
23.11.2020 03:00:00 6,3 6,3 5 3 - - E 1028,4 0,3 0,0
23.11.2020 02:00:00 5,9 5,9 5 3 - - E 1028,4 0,7 0,0
23.11.2020 01:00:00 4,0 3,8 5 3 - - ENE 1028,7 0,2 0,0
23.11.2020 00:00:00 4,5 4,5 4 2 - - NW 1028,8 0,2 0,0
22.11.2020 23:00:00 6,9 6,9 4 2 - - W 1028,8 3,7 0,0
22.11.2020 22:00:00 5,2 5,0 5 3 - - N 1028,7 6 0,2
22.11.2020 21:00:00 7,5 7,4 2 1 - - W 1028,5 23 0,0
22.11.2020 20:00:00 6,5 6,3 8 4 - - N 1028,5 12 0,0
22.11.2020 19:00:00 7,3 7,1 9 5 - - N 1028,5 17 0,0
22.11.2020 18:00:00 8,5 8,3 8 4 - - NNE 1027,8 9 0,0
22.11.2020 17:00:00 9,5 9,3 11 6 - - NNE 1027,3 27 0,0
22.11.2020 16:00:00 10,2 10,0 11 6 - - NNE 1027,0 8 0,2
22.11.2020 15:00:00 10,2 10,1 9 5 - - NNE 1026,9 3,6 0,0
22.11.2020 14:00:00 10,5 10,3 11 6 - - ENE 1026,9 2,7 0,2
22.11.2020 13:00:00 10,5 10,4 11 6 - - NE 1027,3 4,0 0,2
22.11.2020 12:00:00 10,2 10,1 11 6 - - NE 1027,7 2,4 0,8
22.11.2020 11:00:00 10,0 9,9 8 4 - - NE 1028,0 2,1 1,2
22.11.2020 10:00:00 9,7 9,7 8 4 - - NE 1027,8 2,8 0,2
22.11.2020 09:00:00 9,7 9,5 5 3 - - NNE 1027,6 2,0 0,2
22.11.2020 08:00:00 9,7 9,6 2 1 - - E 1027,5 2,4 0,2
22.11.2020 07:00:00 9,8 9,6 4 2 - - N 1027,3 19 0,0
22.11.2020 06:00:00 10,0 9,8 4 2 - - NNW 1027,1 10 0,0
22.11.2020 05:00:00 10,1 9,9 8 4 - - NNW 1027,1 16 0,0
22.11.2020 04:00:00 10,5 10,4 5 3 - - NNW 1026,9 12 0,2
22.11.2020 03:00:00 10,8 10,7 16 9 - - W 1026,8 4,5 0,2
22.11.2020 02:00:00 11,2 11,1 24 13 - - WSW 1026,8 3,0 0,2
22.11.2020 01:00:00 11,2 11,0 22 12 - - WSW 1026,9 7 0,0
22.11.2020 00:00:00 11,1 10,8 24 13 - - WSW 1027,0 9 0,0
21.11.2020 23:00:00 11,5 10,4 29 16 - - SW 1027,0 20 0,0
21.11.2020 22:00:00 11,4 10,4 28 15 - - SW 1027,3 10 0,0
21.11.2020 21:00:00 11,1 10,3 28 15 - - WSW 1027,3 19 0,0
21.11.2020 20:00:00 11,0 10,2 28 15 - - WSW 1027,6 21 0,0
21.11.2020 19:00:00 11,0 10,3 29 16 - - SW 1027,6 10 0,0
21.11.2020 18:00:00 11,1 10,1 35 19 - - WSW 1027,5 19 0,0
21.11.2020 17:00:00 11,0 10,0 34 18 48 26 WSW 1027,6 25 0,0
21.11.2020 16:00:00 11,3 9,8 34 18 48 26 WSW 1027,3 20 0,0
21.11.2020 15:00:00 11,3 9,6 39 21 50 27 SW 1027,3 16 0,0
21.11.2020 14:00:00 11,0 10,0 28 15 - - WSW 1027,7 16 0,0
21.11.2020 13:00:00 11,2 9,6 31 17 46 25 WSW 1028,1 11 0,0
21.11.2020 12:00:00 11,3 9,5 28 15 50 27 WSW 1028,7 21 0,0
21.11.2020 11:00:00 11,1 9,4 31 17 46 25 WSW 1029,2 26 0,0
21.11.2020 10:00:00 11,6 8,6 31 17 50 27 WSW 1029,0 22 0,0
21.11.2020 09:00:00 11,6 8,4 35 19 50 27 SW 1028,7 19 0,0
21.11.2020 08:00:00 11,5 8,1 29 16 48 26 WSW 1028,7 19 0,0
21.11.2020 07:00:00 11,5 7,8 34 18 48 26 WSW 1028,6 26 0,0
21.11.2020 06:00:00 11,6 7,5 37 20 50 27 WSW 1028,7 22 0,0
21.11.2020 05:00:00 11,5 8,4 35 19 50 27 WSW 1028,9 28 0,0
21.11.2020 04:00:00 11,4 8,1 31 17 54 29 WSW 1029,3 24 0,0
21.11.2020 03:00:00 11,5 7,5 35 19 57 31 WSW 1029,5 30 0,0
21.11.2020 02:00:00 11,4 9,0 35 19 48 26 SW 1029,5 23 0,0
21.11.2020 01:00:00 11,4 8,3 34 18 46 25 WSW 1029,8 30 0,0
21.11.2020 00:00:00 11,4 7,7 37 20 46 25 WSW 1030,5 55 0,0
20.11.2020 23:00:00 11,2 9,4 34 18 48 26 SW 1030,6 10 0,2
20.11.2020 22:00:00 10,4 9,5 28 15 - - SW 1031,2 21 0,0
20.11.2020 21:00:00 10,5 9,0 18 10 - - WSW 1031,7 28 0,0
20.11.2020 20:00:00 10,9 8,2 28 15 - - WSW 1031,8 30 0,0
20.11.2020 19:00:00 11,1 7,4 28 15 - - WSW 1031,9 10 0,0
20.11.2020 18:00:00 10,9 8,5 26 14 - - WSW 1032,0 15 0,0
20.11.2020 17:00:00 11,3 9,2 29 16 - - WSW 1032,1 22 0,0
20.11.2020 16:00:00 11,3 9,4 28 15 - - WSW 1032,0 20 0,0
20.11.2020 15:00:00 11,8 9,6 29 16 46 25 WSW 1032,3 24 0,0
20.11.2020 14:00:00 11,5 9,7 31 17 48 26 WSW 1032,9 23 0,0
20.11.2020 13:00:00 11,2 10,1 29 16 50 27 SW 1033,6 10 0,0
20.11.2020 12:00:00 10,6 8,5 29 16 48 26 SW 1034,2 6 0,0
20.11.2020 11:00:00 9,9 8,9 29 16 50 27 SW 1034,5 10 0,0
20.11.2020 10:00:00 9,6 9,0 26 14 48 26 SW 1034,4 10 0,4
20.11.2020 09:00:00 9,7 9,1 24 13 - - SW 1034,7 7 0,2
20.11.2020 08:00:00 9,1 8,6 18 10 - - WSW 1034,9 20 0,6
20.11.2020 07:00:00 9,3 8,7 16 9 - - WSW 1035,3 5 1,4
20.11.2020 06:00:00 10,3 8,1 18 10 - - WSW 1035,3 23 0,2
20.11.2020 05:00:00 10,5 8,1 18 10 - - WSW 1035,3 50 0,0
20.11.2020 04:00:00 10,2 8,0 18 10 - - WSW 1035,6 35 0,0
20.11.2020 03:00:00 9,1 7,5 15 8 - - WSW 1035,9 29 0,0
20.11.2020 02:00:00 9,0 7,5 15 8 - - W 1036,3 22 0,0
20.11.2020 01:00:00 9,4 6,6 15 8 - - W 1037,2 26 0,0
20.11.2020 00:00:00 8,9 5,6 15 8 - - W 1037,7 30 0,0
19.11.2020 23:00:00 7,7 4,4 11 6 - - W 1037,8 16 0,0
19.11.2020 22:00:00 7,5 3,7 11 6 - - W 1037,9 10 0,0
19.11.2020 21:00:00 8,1 3,6 11 6 - - W 1037,4 20 0,0
19.11.2020 20:00:00 7,9 3,2 11 6 - - W 1037,0 10 0,0
19.11.2020 19:00:00 7,9 3,1 13 7 - - WNW 1037,1 10 0,0
19.11.2020 18:00:00 7,6 2,5 13 7 - - WNW 1036,9 10 0,0
19.11.2020 17:00:00 8,7 3,3 9 5 - - WNW 1037,1 10 0,0
19.11.2020 16:00:00 9,4 2,9 15 8 - - NW 1036,5 10 0,0
19.11.2020 15:00:00 9,2 1,9 21 11 - - NNW 1035,9 10 0,0
19.11.2020 14:00:00 9,9 3,0 16 9 - - NW 1035,3 25 0,0
19.11.2020 13:00:00 9,6 2,1 31 17 55 30 NNW 1034,1 10 0,0
19.11.2020 12:00:00 9,8 1,9 34 18 61 33 NW 1034,7 25 0,0
19.11.2020 11:00:00 9,9 2,7 29 16 54 29 NW 1034,4 25 0,0
19.11.2020 10:00:00 9,5 3,0 26 14 54 29 NW 1033,0 25 0,0
19.11.2020 09:00:00 9,1 3,9 29 16 50 27 NW 1032,0 10 0,0
19.11.2020 08:00:00 8,9 3,7 31 17 57 31 WNW 1030,8 20 0,0
19.11.2020 07:00:00 8,7 3,2 31 17 57 31 NW 1029,9 20 0,0
19.11.2020 06:00:00 9,3 3,6 44 24 57 31 NW 1028,9 29 0,0
19.11.2020 05:00:00 10,0 3,3 41 22 61 33 NW 1028,0 21 0,0
19.11.2020 04:00:00 10,1 4,9 37 20 57 31 WNW 1027,3 10 0,0
19.11.2020 03:00:00 10,0 5,3 39 21 52 28 WNW 1026,2 17 0,0
19.11.2020 02:00:00 9,8 7,0 41 22 59 32 W 1025,4 10 0,0
19.11.2020 01:00:00 10,5 5,4 39 21 55 30 W 1024,6 25 0,0
19.11.2020 00:00:00 10,1 4,4 41 22 61 33 W 1024,3 26 0,0

tt = Température de l'air
td = dewpoint
ff = Vitesse du vent
fx = gusts
dd = Direction du vent
ppp = reduced air pressure
vv = visibility
rr = Quantités de précipitations

stations d'obs. à proximité